| time (UTC) | temp F | wind direction | speed MPH | gust MPH | rain 1hr in | rain 24hr in | rain mn in | humidity % | barometer mb |
| 20260902063003 | 57 | 360 | 0.0 | 10.0 | 0.00 | 0.00 | 0.00 | 50 | 1028.8 |
| 20260902062004 | 57 | 148 | 2.0 | 9.0 | 0.00 | 0.00 | 0.00 | 51 | 1028.8 |
| 20260902055902 | 58 | 193 | 1.0 | 9.0 | 0.00 | 0.00 | 0.00 | 48 | 1028.8 |
| 20260902054903 | 58 | 360 | 2.0 | 9.0 | 0.00 | 0.00 | 0.00 | 49 | 1028.9 |
| 20260902053903 | 58 | 123 | 0.0 | 9.0 | 0.00 | 0.00 | 0.00 | 48 | 1028.9 |
| 20260902052904 | 59 | 360 | 0.0 | 5.0 | 0.00 | 0.00 | 0.00 | 47 | 1028.9 |
| 20260902051902 | 59 | 360 | 0.0 | 2.0 | 0.00 | 0.00 | 0.00 | 46 | 1028.8 |
| 20260902050905 | 59 | 359 | 2.0 | 8.0 | 0.00 | 0.00 | 0.00 | 47 | 1028.5 |
| 20260902045903 | 59 | 360 | 1.0 | 10.0 | 0.00 | 0.00 | 0.00 | 46 | 1028.5 |
| 20260902044902 | 59 | 66 | 0.0 | 3.0 | 0.00 | 0.00 | 0.00 | 48 | 1028.7 |
| 20260902043903 | 59 | 223 | 0.0 | 3.0 | 0.00 | 0.00 | 0.00 | 47 | 1028.8 |
| 20260902042903 | 59 | 360 | 0.0 | 8.0 | 0.00 | 0.00 | 0.00 | 47 | 1028.9 |
| 20260902041902 | 60 | 52 | 0.0 | 2.0 | 0.00 | 0.00 | 0.00 | 48 | 1028.8 |
| 20260902040903 | 60 | 360 | 0.0 | 3.0 | 0.00 | 0.00 | 0.00 | 48 | 1028.9 |
| 20260902035903 | 60 | 360 | 0.0 | 0.0 | 0.00 | 0.00 | 0.00 | 48 | 1028.7 |
| 20260902034904 | 61 | 360 | 0.0 | 3.0 | 0.00 | 0.00 | 0.00 | 49 | 1028.7 |
| 20260902033902 | 61 | 140 | 2.0 | 4.0 | 0.00 | 0.00 | 0.00 | 51 | 1028.4 |
| 20260902031803 | 62 | 360 | 0.0 | 1.0 | 0.00 | 0.00 | 0.00 | 51 | 1028.0 |
| 20260902030803 | 63 | 8 | 2.0 | 3.0 | 0.00 | 0.00 | 0.00 | 50 | 1027.7 |
| 20260902025804 | 63 | 360 | 2.0 | 6.0 | 0.00 | 0.00 | 0.00 | 51 | 1027.6 |
| 20260902024803 | 64 | 356 | 0.0 | 2.0 | 0.00 | 0.00 | 0.00 | 52 | 1027.3 |
| 20260902023803 | 64 | 360 | 0.0 | 0.0 | 0.00 | 0.00 | 0.00 | 53 | 1027.2 |
| 20260902022804 | 65 | 198 | 1.0 | 0.0 | 0.00 | 0.00 | 0.00 | 51 | 1027.1 |
| 20260902015604 | 66 | 360 | 0.0 | 10.0 | 0.00 | 0.00 | 0.00 | 51 | 1026.4 |
| 20260902014603 | 66 | 360 | 4.0 | 10.0 | 0.00 | 0.00 | 0.00 | 51 | 1026.4 |
| 20260902011402 | 68 | 360 | 2.0 | 9.0 | 0.00 | 0.00 | 0.00 | 49 | 1026.4 |
| 20260902010403 | 68 | 360 | 1.0 | 10.0 | 0.00 | 0.00 | 0.00 | 48 | 1026.5 |
| 20260902005404 | 68 | 69 | 4.0 | 8.0 | 0.00 | 0.00 | 0.00 | 47 | 1026.4 |
| 20260902004402 | 69 | 360 | 1.0 | 9.0 | 0.00 | 0.00 | 0.00 | 46 | 1026.5 |
| 20260902003403 | 69 | 360 | 0.0 | 10.0 | 0.00 | 0.00 | 0.00 | 46 | 1026.5 |
| 20260902002403 | 69 | 360 | 3.0 | 10.0 | 0.00 | 0.00 | 0.00 | 45 | 1026.5 |
| 20260902001402 | 69 | 186 | 0.0 | 10.0 | 0.00 | 0.00 | 0.00 | 45 | 1026.5 |
| 20260902000406 | 70 | 360 | 0.0 | 9.0 | 0.00 | 0.00 | 0.00 | 44 | 1026.5 |
| 20260901235403 | 70 | 360 | 0.0 | 10.0 | 0.00 | 0.00 | 0.00 | 43 | 1026.7 |
| 20260901234403 | 70 | 360 | 1.0 | 9.0 | 0.00 | 0.00 | 0.00 | 42 | 1026.7 |
| 20260901233403 | 70 | 360 | 0.0 | 9.0 | 0.00 | 0.00 | 0.00 | 40 | 1026.7 |
| 20260901232404 | 71 | 360 | 1.0 | 9.0 | 0.00 | 0.00 | 0.00 | 40 | 1026.8 |
| 20260901230304 | 71 | 360 | 1.0 | 3.0 | 0.00 | 0.00 | 0.00 | 41 | 1026.9 |
| 20260901225306 | 71 | 188 | 2.0 | 8.0 | 0.00 | 0.00 | 0.00 | 42 | 1027.1 |
| 20260901224302 | 70 | 360 | 2.0 | 9.0 | 0.00 | 0.00 | 0.00 | 42 | 1027.1 |
| 20260901223303 | 70 | 150 | 4.0 | 9.0 | 0.00 | 0.00 | 0.00 | 43 | 1027.1 |
| 20260901221202 | 71 | 360 | 4.0 | 9.0 | 0.00 | 0.00 | 0.00 | 43 | 1027.1 |
| 20260901220202 | 71 | 360 | 0.0 | 8.0 | 0.00 | 0.00 | 0.00 | 45 | 1027.1 |
| 20260901215203 | 71 | 360 | 2.0 | 7.0 | 0.00 | 0.00 | 0.00 | 43 | 1027.2 |
| 20260901214203 | 71 | 45 | 0.0 | 2.0 | 0.00 | 0.00 | 0.00 | 39 | 1027.2 |
| 20260901212102 | 72 | 360 | 4.0 | 10.0 | 0.00 | 0.00 | 0.00 | 35 | 1027.2 |
| 20260901211103 | 72 | 311 | 3.0 | 9.0 | 0.00 | 0.00 | 0.00 | 35 | 1027.3 |
| 20260901210104 | 73 | 7 | 3.0 | 10.0 | 0.00 | 0.00 | 0.00 | 33 | 1027.5 |
| 20260901205103 | 74 | 359 | 4.0 | 11.0 | 0.00 | 0.00 | 0.00 | 31 | 1027.6 |
| 20260901204104 | 74 | 333 | 4.0 | 7.0 | 0.00 | 0.00 | 0.00 | 32 | 1027.7 |
| 20260901203102 | 74 | 332 | 2.0 | 6.0 | 0.00 | 0.00 | 0.00 | 33 | 1027.6 |
| 20260901202102 | 73 | 322 | 7.0 | 13.0 | 0.00 | 0.00 | 0.00 | 33 | 1027.7 |
| 20260901201103 | 74 | 16 | 4.0 | 7.0 | 0.00 | 0.00 | 0.00 | 34 | 1028.0 |
| 20260901200103 | 73 | 360 | 4.0 | 8.0 | 0.00 | 0.00 | 0.00 | 33 | 1028.0 |
| 20260901195103 | 72 | 299 | 4.0 | 6.0 | 0.00 | 0.00 | 0.00 | 33 | 1028.1 |
| 20260901194104 | 72 | 308 | 3.0 | 6.0 | 0.00 | 0.00 | 0.00 | 32 | 1028.0 |
| 20260901193102 | 72 | 65 | 3.0 | 6.0 | 0.00 | 0.00 | 0.00 | 32 | 1028.0 |
| 20260901192103 | 73 | 340 | 7.0 | 12.0 | 0.00 | 0.00 | 0.00 | 31 | 1028.1 |
| 20260901191103 | 72 | 343 | 4.0 | 9.0 | 0.00 | 0.00 | 0.00 | 34 | 1028.3 |
| 20260901190104 | 71 | 25 | 2.0 | 7.0 | 0.00 | 0.00 | 0.00 | 34 | 1028.4 |
| 20260901185104 | 71 | 30 | 3.0 | 8.0 | 0.00 | 0.00 | 0.00 | 35 | 1028.4 |
| 20260901184104 | 71 | 333 | 4.0 | 8.0 | 0.00 | 0.00 | 0.00 | 35 | 1028.4 |
| 20260901183103 | 71 | 199 | 7.0 | 13.0 | 0.00 | 0.00 | 0.00 | 35 | 1028.7 |
| 20260901181004 | 69 | 360 | 3.0 | 10.0 | 0.00 | 0.00 | 0.00 | 37 | 1028.7 |
| 20260901180003 | 69 | 325 | 3.0 | 7.0 | 0.00 | 0.00 | 0.00 | 38 | 1028.8 |
| 20260901175003 | 70 | 344 | 4.0 | 7.0 | 0.00 | 0.00 | 0.00 | 37 | 1028.8 |
| 20260901174005 | 69 | 326 | 4.0 | 9.0 | 0.00 | 0.00 | 0.00 | 38 | 1028.8 |
| 20260901173002 | 68 | 17 | 4.0 | 10.0 | 0.00 | 0.00 | 0.00 | 43 | 1028.9 |
| 20260901172003 | 68 | 52 | 4.0 | 12.0 | 0.00 | 0.00 | 0.00 | 42 | 1028.9 |
| 20260901171004 | 67 | 7 | 6.0 | 8.0 | 0.00 | 0.00 | 0.00 | 42 | 1028.9 |
| 20260901170003 | 67 | 326 | 5.0 | 10.0 | 0.00 | 0.00 | 0.00 | 44 | 1028.8 |
| 20260901165003 | 66 | 11 | 6.0 | 9.0 | 0.00 | 0.00 | 0.00 | 47 | 1028.7 |
| 20260901164003 | 66 | 356 | 5.0 | 8.0 | 0.00 | 0.00 | 0.00 | 47 | 1028.7 |
| 20260901163002 | 65 | 360 | 5.0 | 9.0 | 0.00 | 0.00 | 0.00 | 50 | 1028.8 |
| 20260901162003 | 64 | 7 | 5.0 | 10.0 | 0.00 | 0.00 | 0.00 | 51 | 1028.8 |
| 20260901161004 | 63 | 353 | 5.0 | 9.0 | 0.00 | 0.00 | 0.00 | 53 | 1028.8 |
| 20260901153804 | 63 | 360 | 0.0 | 5.0 | 0.00 | 0.00 | 0.00 | 54 | 1028.8 |
| 20260901152802 | 61 | 131 | 0.0 | 0.0 | 0.00 | 0.00 | 0.00 | 59 | 1028.9 |
| 20260901150703 | 58 | 219 | 1.0 | 6.0 | 0.00 | 0.00 | 0.00 | 70 | 1029.1 |
| 20260901145703 | 56 | 120 | 4.0 | 9.0 | 0.00 | 0.00 | 0.00 | 73 | 1029.2 |
| 20260901144704 | 54 | 176 | 0.0 | 6.0 | 0.00 | 0.00 | 0.00 | 77 | 1029.3 |
| 20260901143702 | 52 | 222 | 0.0 | 2.0 | 0.00 | 0.00 | 0.00 | 79 | 1029.5 |
| 20260901142703 | 51 | 212 | 1.0 | 8.0 | 0.00 | 0.00 | 0.00 | 80 | 1029.6 |
| 20260901141704 | 51 | 213 | 1.0 | 9.0 | 0.00 | 0.00 | 0.00 | 80 | 1029.9 |
| 20260901140702 | 51 | 58 | 0.0 | 1.0 | 0.00 | 0.00 | 0.00 | 80 | 1029.9 |
| 20260901135703 | 51 | 112 | 0.0 | 1.0 | 0.00 | 0.00 | 0.00 | 80 | 1029.9 |
| 20260901134704 | 51 | 360 | 2.0 | 5.0 | 0.00 | 0.00 | 0.00 | 80 | 1029.9 |
| 20260901132604 | 51 | 213 | 0.0 | 5.0 | 0.00 | 0.00 | 0.00 | 80 | 1029.6 |
| 20260901131602 | 51 | 171 | 3.0 | 5.0 | 0.00 | 0.00 | 0.00 | 80 | 1029.5 |
| 20260901130603 | 51 | 123 | 1.0 | 8.0 | 0.00 | 0.00 | 0.00 | 80 | 1029.3 |
| 20260901125603 | 51 | 171 | 0.0 | 0.0 | 0.00 | 0.00 | 0.00 | 80 | 1029.1 |
| 20260901124602 | 51 | 171 | 0.0 | 0.0 | 0.00 | 0.00 | 0.00 | 80 | 1028.9 |
| 20260901123603 | 52 | 171 | 0.0 | 0.0 | 0.00 | 0.00 | 0.00 | 80 | 1028.8 |
| 20260901121503 | 52 | 198 | 1.0 | 1.0 | 0.00 | 0.00 | 0.00 | 80 | 1028.8 |
| 20260901120504 | 52 | 169 | 0.0 | 2.0 | 0.00 | 0.00 | 0.00 | 80 | 1028.8 |
| 20260901115502 | 53 | 172 | 0.0 | 6.0 | 0.00 | 0.00 | 0.00 | 80 | 1028.8 |
| 20260901114503 | 53 | 195 | 2.0 | 0.0 | 0.00 | 0.00 | 0.00 | 80 | 1028.8 |
| 20260901113504 | 53 | 32 | 0.0 | 0.0 | 0.00 | 0.00 | 0.00 | 80 | 1028.8 |
| 20260901112502 | 53 | 32 | 0.0 | 0.0 | 0.00 | 0.00 | 0.00 | 80 | 1028.8 |
| 20260901111503 | 54 | 32 | 0.0 | 4.0 | 0.00 | 0.00 | 0.00 | 80 | 1028.7 |
| 20260901104303 | 54 | 88 | 0.0 | 0.0 | 0.00 | 0.00 | 0.00 | 79 | 1028.4 |
| 20260901103304 | 54 | 88 | 0.0 | 0.0 | 0.00 | 0.00 | 0.00 | 79 | 1028.3 |
| 20260901102306 | 54 | 88 | 0.0 | 0.0 | 0.00 | 0.00 | 0.00 | 79 | 1028.0 |
| 20260901101303 | 54 | 88 | 0.0 | 0.0 | 0.00 | 0.00 | 0.00 | 79 | 1027.9 |
| 20260901100304 | 54 | 88 | 0.0 | 0.0 | 0.00 | 0.00 | 0.00 | 79 | 1028.0 |
| 20260901095306 | 54 | 88 | 0.0 | 0.0 | 0.00 | 0.00 | 0.00 | 79 | 1028.0 |
| 20260901094302 | 54 | 88 | 2.0 | 0.0 | 0.00 | 0.00 | 0.00 | 79 | 1028.0 |
| 20260901093304 | 54 | 97 | 0.0 | 0.0 | 0.00 | 0.00 | 0.00 | 79 | 1028.1 |
| 20260901092305 | 54 | 97 | 0.0 | 0.0 | 0.00 | 0.00 | 0.00 | 79 | 1028.3 |
| 20260901091303 | 54 | 69 | 0.0 | 0.0 | 0.00 | 0.00 | 0.00 | 79 | 1028.1 |
| 20260901090303 | 54 | 69 | 0.0 | 0.0 | 0.00 | 0.00 | 0.00 | 79 | 1028.1 |
| 20260901085306 | 54 | 69 | 0.0 | 0.0 | 0.00 | 0.00 | 0.00 | 79 | 1028.3 |
| 20260901084302 | 54 | 316 | 2.0 | 4.0 | 0.00 | 0.00 | 0.00 | 79 | 1028.4 |
| 20260901083303 | 54 | 359 | 1.0 | 7.0 | 0.00 | 0.00 | 0.00 | 79 | 1028.4 |
| 20260901082306 | 54 | 28 | 1.0 | 10.0 | 0.00 | 0.00 | 0.00 | 79 | 1028.5 |
| 20260901081302 | 54 | 195 | 0.0 | 3.0 | 0.00 | 0.00 | 0.00 | 78 | 1028.5 |
| 20260901080303 | 54 | 11 | 2.0 | 8.0 | 0.00 | 0.00 | 0.00 | 78 | 1028.5 |
| 20260901075307 | 54 | 360 | 0.0 | 7.0 | 0.00 | 0.00 | 0.00 | 78 | 1028.5 |
| 20260901074304 | 54 | 114 | 0.0 | 0.0 | 0.00 | 0.00 | 0.00 | 79 | 1028.5 |
| 20260901073302 | 54 | 114 | 0.0 | 0.0 | 0.00 | 0.00 | 0.00 | 79 | 1028.7 |
| 20260901070103 | 54 | 58 | 0.0 | 0.0 | 0.00 | 0.00 | 0.00 | 80 | 1029.1 |
| 20260901064003 | 54 | 58 | 0.0 | 0.0 | 0.00 | 0.00 | 0.00 | 80 | 1029.5 |